User: anonymous   Login
Location: El Corozo
(10.5833°N, 66.9667°W)
Time: 15:55:58
(UTC+00:00)
Language:

Resurs 01 Rocket - Orbit

View from above orbital plane
View from above orbital plane
View from above satellite
View from above satellite

Ground track
Ground track

The orbit data is extracted from the following two-line orbital elements,

1 23343U 94074B   24202.15935117  .00001123  00000-0  16187-3 0  9994
2 23343  97.7854 244.0373 0006958  16.7884  19.1461 14.78165509599148
Epoch (UTC): 20 July 2024 03:49:27
Eccentricity: 0.0006958
inclination: 97.7854°
perigee height: 630 km
apogee height: 640 km
right ascension of ascending node: 244.0373°
argument of perigee: 16.7884°
revolutions per day: 14.78165509
mean anomaly at epoch: 19.1461°
orbit number at epoch: 59914

The dashed part of the orbit path shows where the satellite is in the earth's shadow,  

DLR